COSMOS 2251 DEB, 33915

Orbit data source: Space-Track

COSMOS 2251 DEB, 33915 is space debris in LEO originally from a launch on Wed, 16 Jun 1993 UTC launched from the Plesetsk Missile And Space Complex (PKMTR). The debris from Iridium 33, an American commercial communications satellite, has been tracked extensively since its accidental collision with the defunct Russian satellite Cosmos 2251 in 2009. This event, occurring at high speed in low Earth orbit (LEO), generated thousands of pieces of space debris, significantly increasing the risk of further collisions. The Iridium 33 debris cloud has impacted space traffic management and orbital debris mitigation strategies, making it a subject of ongoing study in space situational awareness.

Loading next visibility...
Identifier
33915, 1993-036DU
Orbit
LEO
Country
Flag of CISCIS
Related business
Manufacturer
Unknown
Mission
Spacecraft
Bus & Motor
Unknown
Mass
Unknown
Launch date (UTC)
1993-06-16 (33 years ago)
Launch vehicle
Unknown
Launch site
Plesetsk Missile And Space Complex (PKMTR)
Object type
Payload
Rocket body
Debris
Shape & HBR
Unknown shape, 0.1 m
Radar Cross Section
Medium (>0.1 m² and <1 m²)

Expand to show TLE details & history
Last TLE update: 11 hours ago

TLE from 11 hours ago
0 COSMOS 2251 DEB
1 33915U 93036DU  26257.42386120  .00000773  00000-0  25978-3 0  9991
2 33915  74.0400 248.5466 0107587 273.0458 240.4663 14.35715348917137
Epoch: 2026-09-14T10:10Z
TLE epoch observation values (Epoch: 2026-09-14T10:10:21.607Z)
Latitude
26.44887°
Longitude
-85.58347°
Altitude
814.149 km
Speed
7.429 km/s
True Right ascension
04h 01m 38s
True Declination
26° 18' 47"
Sunlit
Object was in daylight at epoch
Visualization orbit readout
Latitude
Unknown
Longitude
Unknown
Altitude
Unknown
Speed
Unknown
Apparent Right ascension
Unknown
Apparent Declination
Unknown
Sunlit
N/A
Visualization observer readout
Local Sidereal Time
13:58:18
Azimuth
Unknown
Elevation
Unknown
Doppler factor
Unknown
Orbital elements
Apogee altitude
847.222 km
Perigee altitude
693.406 km
Semi-major axis
7,148.451 km
Eccentricity
0.01076
Inclination
74.04°
RAAN
248.5466°
Arg. of periapsis
273.0458°
True anomaly
239.40076°
Mean anomaly
240.4663°
Eccentric anomaly
239.93282°
Mean motion
3.59108 °/min
Orbital period
100.25 mins
BSTAR
0.00025978
Loading maneuver chart data...
Computing Atmospheric mass density...

Documentation

Showing up to 5 results
|